Time,TemperatureF,DewpointF,PressureIn,WindDirection,WindDirectionDegrees,WindSpeedMPH,WindSpeedGustMPH,Humidity,HourlyPrecipIn,Conditions,Clouds,dailyrainin,SoftwareType,DateUTC
2013-03-13 00:00:00,45.0,29.8,-100.00,West,264,0.0,0.0,55,0.00,,,0.00,VWS V14.01,2013-03-13 07:00:00,
2013-03-13 00:05:00,45.1,30.0,-100.00,West,264,0.0,0.0,55,0.00,,,0.00,VWS V14.01,2013-03-13 07:05:00,
2013-03-13 00:10:00,45.1,30.4,-100.00,West,264,0.0,0.0,56,0.00,,,0.00,VWS V14.01,2013-03-13 07:10:00,
2013-03-13 00:15:00,44.8,29.6,-100.00,West,264,0.0,0.0,55,0.00,,,0.00,VWS V14.01,2013-03-13 07:15:00,
2013-03-13 00:20:00,44.8,30.1,-100.00,West,264,0.0,0.0,56,0.00,,,0.00,VWS V14.01,2013-03-13 07:20:00,
2013-03-13 00:25:00,44.6,30.3,-100.00,West,264,0.0,0.0,57,0.00,,,0.00,VWS V14.01,2013-03-13 07:25:00,
2013-03-13 00:30:00,44.4,30.2,-100.00,West,264,0.0,0.0,57,0.00,,,0.00,VWS V14.01,2013-03-13 07:30:00,
2013-03-13 00:35:00,44.4,30.2,-100.00,West,264,0.0,0.0,57,0.00,,,0.00,VWS V14.01,2013-03-13 07:35:00,
2013-03-13 00:40:00,44.4,30.2,-100.00,West,264,0.0,0.0,57,0.00,,,0.00,VWS V14.01,2013-03-13 07:40:00,
2013-03-13 00:45:00,44.2,30.4,-100.00,West,264,0.0,0.0,58,0.00,,,0.00,VWS V14.01,2013-03-13 07:45:00,
2013-03-13 00:50:00,44.2,30.4,-100.00,West,264,0.0,0.0,58,0.00,,,0.00,VWS V14.01,2013-03-13 07:50:00,
2013-03-13 00:55:00,44.2,30.4,-100.00,West,264,0.0,0.0,58,0.00,,,0.00,VWS V14.01,2013-03-13 07:55:00,
2013-03-13 01:00:00,44.2,30.4,-100.00,West,264,0.0,0.0,58,0.00,,,0.00,VWS V14.01,2013-03-13 08:00:00,
2013-03-13 01:05:00,44.1,30.7,-100.00,West,264,0.0,0.0,59,0.00,,,0.00,VWS V14.01,2013-03-13 08:05:00,
2013-03-13 01:10:00,43.7,30.7,-100.00,West,264,0.0,0.0,60,0.00,,,0.00,VWS V14.01,2013-03-13 08:10:00,
2013-03-13 01:15:00,43.5,30.6,-100.00,West,264,0.0,0.0,60,0.00,,,0.00,VWS V14.01,2013-03-13 08:15:00,
2013-03-13 01:20:00,43.5,30.6,-100.00,West,264,0.0,0.0,60,0.00,,,0.00,VWS V14.01,2013-03-13 08:20:00,
2013-03-13 01:25:00,43.3,30.4,-100.00,West,264,0.0,0.0,60,0.00,,,0.00,VWS V14.01,2013-03-13 08:25:00,
2013-03-13 01:30:00,43.3,30.4,-100.00,West,264,0.0,0.0,60,0.00,,,0.00,VWS V14.01,2013-03-13 08:30:00,
2013-03-13 01:35:00,43.5,30.2,-100.00,West,264,0.0,0.0,59,0.00,,,0.00,VWS V14.01,2013-03-13 08:35:00,
2013-03-13 01:40:00,43.9,29.6,-100.00,West,264,0.0,0.0,57,0.00,,,0.00,VWS V14.01,2013-03-13 08:40:00,
2013-03-13 01:45:00,44.1,29.4,-100.00,NNE,12,0.0,0.0,56,0.00,,,0.00,VWS V14.01,2013-03-13 08:45:00,
2013-03-13 01:50:00,44.1,28.9,-100.00,NNE,12,0.0,0.0,55,0.00,,,0.00,VWS V14.01,2013-03-13 08:50:00,
2013-03-13 01:55:00,44.1,29.4,-100.00,NNE,12,0.0,0.0,56,0.00,,,0.00,VWS V14.01,2013-03-13 08:55:00,
2013-03-13 02:00:00,43.7,29.0,-100.00,NNE,12,0.0,0.0,56,0.00,,,0.00,VWS V14.01,2013-03-13 09:00:00,
2013-03-13 02:05:00,43.5,29.3,-100.00,NNE,12,0.0,0.0,57,0.00,,,0.00,VWS V14.01,2013-03-13 09:05:00,
2013-03-13 02:10:00,43.3,29.1,-100.00,NNE,12,0.0,0.0,57,0.00,,,0.00,VWS V14.01,2013-03-13 09:10:00,
2013-03-13 02:15:00,43.0,28.8,-100.00,NNE,12,0.0,0.0,57,0.00,,,0.00,VWS V14.01,2013-03-13 09:15:00,
2013-03-13 02:20:00,42.8,29.1,-100.00,NNE,12,0.0,0.0,58,0.00,,,0.00,VWS V14.01,2013-03-13 09:20:00,
2013-03-13 02:25:00,42.4,28.7,-100.00,NNE,12,0.0,0.0,58,0.00,,,0.00,VWS V14.01,2013-03-13 09:25:00,
2013-03-13 02:30:00,42.4,28.7,-100.00,NNE,12,0.0,0.0,58,0.00,,,0.00,VWS V14.01,2013-03-13 09:30:00,
2013-03-13 02:35:00,42.3,29.0,-100.00,NNE,12,0.0,0.0,59,0.00,,,0.00,VWS V14.01,2013-03-13 09:35:00,
2013-03-13 02:40:00,42.1,28.8,-100.00,NNE,12,0.0,0.0,59,0.00,,,0.00,VWS V14.01,2013-03-13 09:40:00,
2013-03-13 02:45:00,41.9,28.6,-100.00,NNE,12,0.0,0.0,59,0.00,,,0.00,VWS V14.01,2013-03-13 09:45:00,
2013-03-13 02:50:00,41.7,28.5,-100.00,NNE,12,0.0,0.0,59,0.00,,,0.00,VWS V14.01,2013-03-13 09:50:00,
2013-03-13 02:55:00,41.7,28.5,-100.00,NNE,12,0.0,0.0,59,0.00,,,0.00,VWS V14.01,2013-03-13 09:55:00,
2013-03-13 03:00:00,41.7,28.5,-100.00,NNE,12,0.0,0.0,59,0.00,,,0.00,VWS V14.01,2013-03-13 10:00:00,
2013-03-13 03:05:00,41.5,27.9,-100.00,NNE,12,0.0,0.0,58,0.00,,,0.00,VWS V14.01,2013-03-13 10:05:00,
2013-03-13 03:10:00,41.5,28.3,-100.00,NNE,12,0.0,0.0,59,0.00,,,0.00,VWS V14.01,2013-03-13 10:10:00,
2013-03-13 03:15:00,41.4,28.5,-100.00,NNE,12,0.0,0.0,60,0.00,,,0.00,VWS V14.01,2013-03-13 10:15:00,
2013-03-13 03:20:00,41.2,28.8,-100.00,NNE,12,0.0,0.0,61,0.00,,,0.00,VWS V14.01,2013-03-13 10:20:00,
2013-03-13 03:25:00,41.0,28.6,-100.00,NNE,12,0.0,0.0,61,0.00,,,0.00,VWS V14.01,2013-03-13 10:25:00,
2013-03-13 03:30:00,41.0,29.0,-100.00,NNE,12,0.0,0.0,62,0.00,,,0.00,VWS V14.01,2013-03-13 10:30:00,
2013-03-13 03:35:00,40.8,29.2,-100.00,NNE,12,0.0,0.0,63,0.00,,,0.00,VWS V14.01,2013-03-13 10:35:00,
2013-03-13 03:40:00,40.6,29.4,-100.00,NNE,12,0.0,0.0,64,0.00,,,0.00,VWS V14.01,2013-03-13 10:40:00,
2013-03-13 03:45:00,40.6,29.4,-100.00,NNE,12,0.0,0.0,64,0.00,,,0.00,VWS V14.01,2013-03-13 10:45:00,
2013-03-13 03:50:00,40.6,29.4,-100.00,NNE,12,0.0,0.0,64,0.00,,,0.00,VWS V14.01,2013-03-13 10:50:00,
2013-03-13 03:55:00,40.8,29.2,-100.00,NW,325,0.0,0.0,63,0.00,,,0.00,VWS V14.01,2013-03-13 10:55:00,
2013-03-13 04:00:00,41.0,29.0,-100.00,NW,325,0.0,0.0,62,0.00,,,0.00,VWS V14.01,2013-03-13 11:00:00,
2013-03-13 04:05:00,41.2,29.2,-100.00,NW,314,0.0,0.0,62,0.00,,,0.00,VWS V14.01,2013-03-13 11:05:00,
2013-03-13 04:10:00,41.4,28.5,-100.00,NNE,16,0.0,0.0,60,0.00,,,0.00,VWS V14.01,2013-03-13 11:10:00,
2013-03-13 04:15:00,41.7,28.9,-100.00,NNE,16,0.0,0.0,60,0.00,,,0.00,VWS V14.01,2013-03-13 11:15:00,
2013-03-13 04:20:00,41.7,28.9,-100.00,NNE,16,0.0,0.0,60,0.00,,,0.00,VWS V14.01,2013-03-13 11:20:00,
2013-03-13 04:25:00,41.7,28.9,-100.00,NW,308,0.0,0.0,60,0.00,,,0.00,VWS V14.01,2013-03-13 11:25:00,
2013-03-13 04:30:00,41.9,29.0,-100.00,NW,308,0.0,0.0,60,0.00,,,0.00,VWS V14.01,2013-03-13 11:30:00,
2013-03-13 04:35:00,41.9,29.0,-100.00,North,0,0.0,0.0,60,0.00,,,0.00,VWS V14.01,2013-03-13 11:35:00,
2013-03-13 04:40:00,42.1,29.2,-100.00,North,0,0.0,0.0,60,0.00,,,0.00,VWS V14.01,2013-03-13 11:40:00,
2013-03-13 04:45:00,41.9,29.0,-100.00,North,0,0.0,0.0,60,0.00,,,0.00,VWS V14.01,2013-03-13 11:45:00,
2013-03-13 04:50:00,42.1,29.2,-100.00,WNW,289,0.0,0.0,60,0.00,,,0.00,VWS V14.01,2013-03-13 11:50:00,
2013-03-13 04:55:00,42.4,28.7,-100.00,West,262,0.0,0.0,58,0.00,,,0.00,VWS V14.01,2013-03-13 11:55:00,
2013-03-13 05:00:00,42.3,29.0,-100.00,West,273,0.0,0.0,59,0.00,,,0.00,VWS V14.01,2013-03-13 12:00:00,
2013-03-13 05:05:00,42.1,28.8,-100.00,West,273,0.0,0.0,59,0.00,,,0.00,VWS V14.01,2013-03-13 12:05:00,
2013-03-13 05:10:00,41.9,29.0,-100.00,West,273,0.0,0.0,60,0.00,,,0.00,VWS V14.01,2013-03-13 12:10:00,
2013-03-13 05:15:00,41.7,28.9,-100.00,West,273,0.0,0.0,60,0.00,,,0.00,VWS V14.01,2013-03-13 12:15:00,
2013-03-13 05:20:00,41.5,28.7,-100.00,West,273,0.0,0.0,60,0.00,,,0.00,VWS V14.01,2013-03-13 12:20:00,
2013-03-13 05:25:00,41.4,28.9,-100.00,West,273,0.0,0.0,61,0.00,,,0.00,VWS V14.01,2013-03-13 12:25:00,
2013-03-13 05:30:00,41.2,28.8,-100.00,West,273,0.0,0.0,61,0.00,,,0.00,VWS V14.01,2013-03-13 12:30:00,
2013-03-13 05:35:00,41.0,29.0,-100.00,West,273,0.0,0.0,62,0.00,,,0.00,VWS V14.01,2013-03-13 12:35:00,
2013-03-13 05:40:00,41.2,29.6,-100.00,West,273,0.0,0.0,63,0.00,,,0.00,VWS V14.01,2013-03-13 12:40:00,
2013-03-13 05:45:00,41.5,29.9,-100.00,West,273,0.0,0.0,63,0.00,,,0.00,VWS V14.01,2013-03-13 12:45:00,
2013-03-13 05:50:00,41.5,29.9,-100.00,West,273,0.0,0.0,63,0.00,,,0.00,VWS V14.01,2013-03-13 12:50:00,
2013-03-13 05:55:00,41.5,29.9,-100.00,SW,218,0.0,0.0,63,0.00,,,0.00,VWS V14.01,2013-03-13 12:55:00,
2013-03-13 06:00:00,41.5,29.5,-100.00,SSW,213,0.0,0.0,62,0.00,,,0.00,VWS V14.01,2013-03-13 13:00:00,
2013-03-13 06:05:00,41.4,29.3,-100.00,SSW,213,0.0,0.0,62,0.00,,,0.00,VWS V14.01,2013-03-13 13:05:00,
2013-03-13 06:10:00,41.2,29.2,-100.00,SSW,213,0.0,0.0,62,0.00,,,0.00,VWS V14.01,2013-03-13 13:10:00,
2013-03-13 06:15:00,41.0,29.8,-100.00,SW,223,0.0,0.0,64,0.00,,,0.00,VWS V14.01,2013-03-13 13:15:00,
2013-03-13 06:20:00,40.8,29.6,-100.00,SW,223,0.0,0.0,64,0.00,,,0.00,VWS V14.01,2013-03-13 13:20:00,
2013-03-13 06:25:00,40.6,29.4,-100.00,SW,223,0.0,0.0,64,0.00,,,0.00,VWS V14.01,2013-03-13 13:25:00,
2013-03-13 06:30:00,40.6,29.8,-100.00,SW,223,0.0,0.0,65,0.00,,,0.00,VWS V14.01,2013-03-13 13:30:00,
2013-03-13 06:35:00,40.5,29.6,-100.00,SW,223,0.0,0.0,65,0.00,,,0.00,VWS V14.01,2013-03-13 13:35:00,
2013-03-13 06:40:00,40.3,29.5,-100.00,SW,223,0.0,0.0,65,0.00,,,0.00,VWS V14.01,2013-03-13 13:40:00,
2013-03-13 06:45:00,40.3,29.5,-100.00,SW,223,0.0,0.0,65,0.00,,,0.00,VWS V14.01,2013-03-13 13:45:00,
2013-03-13 06:50:00,40.1,29.7,-100.00,SW,223,0.0,0.0,66,0.00,,,0.00,VWS V14.01,2013-03-13 13:50:00,
2013-03-13 06:55:00,40.1,29.7,-100.00,SW,223,0.0,0.0,66,0.00,,,0.00,VWS V14.01,2013-03-13 13:55:00,
2013-03-13 07:00:00,39.9,29.5,-100.00,SW,223,0.0,0.0,66,0.00,,,0.00,VWS V14.01,2013-03-13 14:00:00,
2013-03-13 07:05:00,39.7,29.3,-100.00,SW,223,0.0,0.0,66,0.00,,,0.00,VWS V14.01,2013-03-13 14:05:00,
2013-03-13 07:10:00,39.7,29.3,-100.00,SW,223,0.0,0.0,66,0.00,,,0.00,VWS V14.01,2013-03-13 14:10:00,
2013-03-13 07:15:00,39.6,29.5,-100.00,SW,223,0.0,0.0,67,0.00,,,0.00,VWS V14.01,2013-03-13 14:15:00,
2013-03-13 07:20:00,39.4,29.4,-100.00,SW,223,0.0,0.0,67,0.00,,,0.00,VWS V14.01,2013-03-13 14:20:00,
2013-03-13 07:25:00,39.4,29.0,-100.00,SW,223,0.0,0.0,66,0.00,,,0.00,VWS V14.01,2013-03-13 14:25:00,
2013-03-13 07:30:00,39.4,29.4,-100.00,SW,223,0.0,0.0,67,0.00,,,0.00,VWS V14.01,2013-03-13 14:30:00,
2013-03-13 07:35:00,39.2,28.8,-100.00,SW,223,0.0,0.0,66,0.00,,,0.00,VWS V14.01,2013-03-13 14:35:00,
2013-03-13 07:40:00,39.2,29.2,-100.00,SW,223,0.0,0.0,67,0.00,,,0.00,VWS V14.01,2013-03-13 14:40:00,
2013-03-13 07:45:00,39.2,29.9,-100.00,SW,223,0.0,0.0,69,0.00,,,0.00,VWS V14.01,2013-03-13 14:45:00,
2013-03-13 07:50:00,39.4,30.1,-100.00,SW,223,0.0,0.0,69,0.00,,,0.00,VWS V14.01,2013-03-13 14:50:00,
2013-03-13 07:55:00,39.4,30.1,-100.00,SW,223,0.0,0.0,69,0.00,,,0.00,VWS V14.01,2013-03-13 14:55:00,
2013-03-13 08:00:00,39.7,30.4,-100.00,SW,223,0.0,0.0,69,0.00,,,0.00,VWS V14.01,2013-03-13 15:00:00,
2013-03-13 08:05:00,39.9,30.6,-100.00,SW,223,0.0,0.0,69,0.00,,,0.00,VWS V14.01,2013-03-13 15:05:00,
2013-03-13 08:10:00,40.1,30.4,-100.00,SW,223,0.0,0.0,68,0.00,,,0.00,VWS V14.01,2013-03-13 15:10:00,
2013-03-13 08:15:00,40.3,30.6,-100.00,SW,223,0.0,0.0,68,0.00,,,0.00,VWS V14.01,2013-03-13 15:15:00,
2013-03-13 08:20:00,40.6,30.9,-100.00,SW,223,0.0,0.0,68,0.00,,,0.00,VWS V14.01,2013-03-13 15:20:00,
2013-03-13 08:25:00,40.8,30.7,-100.00,SW,223,0.0,0.0,67,0.00,,,0.00,VWS V14.01,2013-03-13 15:25:00,
2013-03-13 08:30:00,41.2,30.7,-100.00,SW,223,0.0,0.0,66,0.00,,,0.00,VWS V14.01,2013-03-13 15:30:00,
2013-03-13 08:35:00,41.7,31.2,-100.00,SW,223,0.0,0.0,66,0.00,,,0.00,VWS V14.01,2013-03-13 15:35:00,
2013-03-13 08:40:00,42.1,31.2,-100.00,SW,223,0.0,0.0,65,0.00,,,0.00,VWS V14.01,2013-03-13 15:40:00,
2013-03-13 08:45:00,42.4,31.5,-100.00,SW,223,0.0,0.0,65,0.00,,,0.00,VWS V14.01,2013-03-13 15:45:00,
2013-03-13 08:50:00,43.0,29.6,-100.00,SW,223,0.0,0.0,59,0.00,,,0.00,VWS V14.01,2013-03-13 15:50:00,
2013-03-13 08:55:00,43.3,30.0,-100.00,SW,223,0.0,0.0,59,0.00,,,0.00,VWS V14.01,2013-03-13 15:55:00,
2013-03-13 09:00:00,44.1,30.7,-100.00,SW,223,0.0,0.0,59,0.00,,,0.00,VWS V14.01,2013-03-13 16:00:00,
2013-03-13 09:05:00,44.6,29.9,-100.00,SW,223,0.0,0.0,56,0.00,,,0.00,VWS V14.01,2013-03-13 16:05:00,
2013-03-13 09:10:00,44.8,30.1,-100.00,South,174,0.0,0.0,56,0.00,,,0.00,VWS V14.01,2013-03-13 16:10:00,
2013-03-13 09:15:00,45.1,30.4,-100.00,South,174,0.0,0.0,56,0.00,,,0.00,VWS V14.01,2013-03-13 16:15:00,
2013-03-13 09:20:00,45.5,30.3,-100.00,SW,231,0.0,0.0,55,0.00,,,0.00,VWS V14.01,2013-03-13 16:20:00,
2013-03-13 09:25:00,46.0,30.3,-100.00,SSW,200,0.0,0.0,54,0.00,,,0.00,VWS V14.01,2013-03-13 16:25:00,
2013-03-13 09:30:00,46.6,30.4,-100.00,South,184,0.0,0.0,53,0.00,,,0.00,VWS V14.01,2013-03-13 16:30:00,
2013-03-13 09:35:00,46.9,30.2,-100.00,South,184,0.0,0.0,52,0.00,,,0.00,VWS V14.01,2013-03-13 16:35:00,
2013-03-13 09:40:00,47.1,29.9,-100.00,South,184,0.0,0.0,51,0.00,,,0.00,VWS V14.01,2013-03-13 16:40:00,
2013-03-13 09:45:00,47.5,29.3,-100.00,South,184,0.0,0.0,49,0.00,,,0.00,VWS V14.01,2013-03-13 16:45:00,
2013-03-13 09:50:00,47.7,29.5,-100.00,South,184,0.0,0.0,49,0.00,,,0.00,VWS V14.01,2013-03-13 16:50:00,
2013-03-13 09:55:00,48.0,29.3,-100.00,SW,219,0.0,0.0,48,0.00,,,0.00,VWS V14.01,2013-03-13 16:55:00,
2013-03-13 10:00:00,48.4,29.6,-100.00,WSW,243,0.0,0.0,48,0.00,,,0.00,VWS V14.01,2013-03-13 17:00:00,
2013-03-13 10:05:00,48.7,29.4,-100.00,South,191,0.0,0.0,47,0.00,,,0.00,VWS V14.01,2013-03-13 17:05:00,
2013-03-13 10:10:00,48.9,28.5,-100.00,WSW,243,0.0,0.0,45,0.00,,,0.00,VWS V14.01,2013-03-13 17:10:00,
2013-03-13 10:15:00,49.5,29.0,-100.00,SSW,196,0.0,0.0,45,0.00,,,0.00,VWS V14.01,2013-03-13 17:15:00,
2013-03-13 10:20:00,50.0,28.4,-100.00,WSW,250,0.0,0.0,43,0.00,,,0.00,VWS V14.01,2013-03-13 17:20:00,
2013-03-13 10:25:00,50.4,28.2,-100.00,South,170,0.0,0.0,42,0.00,,,0.00,VWS V14.01,2013-03-13 17:25:00,
2013-03-13 10:30:00,50.7,29.1,-100.00,SW,217,0.0,0.0,43,0.00,,,0.00,VWS V14.01,2013-03-13 17:30:00,
2013-03-13 10:35:00,50.9,28.6,-100.00,SW,217,0.0,0.0,42,0.00,,,0.00,VWS V14.01,2013-03-13 17:35:00,
2013-03-13 10:40:00,51.1,29.4,-100.00,South,181,0.0,0.0,43,0.00,,,0.00,VWS V14.01,2013-03-13 17:40:00,
2013-03-13 10:45:00,51.3,29.0,-100.00,SSE,157,4.0,4.0,42,0.00,,,0.00,VWS V14.01,2013-03-13 17:45:00,
2013-03-13 10:50:00,51.4,29.1,-100.00,SE,145,3.1,3.1,42,0.00,,,0.00,VWS V14.01,2013-03-13 17:50:00,
2013-03-13 10:55:00,51.8,29.5,-100.00,SW,217,0.0,0.0,42,0.00,,,0.00,VWS V14.01,2013-03-13 17:55:00,
2013-03-13 11:00:00,52.3,30.0,-100.00,WSW,239,3.6,3.6,42,0.00,,,0.00,VWS V14.01,2013-03-13 18:00:00,
2013-03-13 11:05:00,52.9,29.8,-100.00,South,183,0.0,3.6,41,0.00,,,0.00,VWS V14.01,2013-03-13 18:05:00,
2013-03-13 11:10:00,53.1,30.0,-100.00,SSE,160,0.0,0.0,41,0.00,,,0.00,VWS V14.01,2013-03-13 18:10:00,
2013-03-13 11:15:00,53.6,30.5,-100.00,SSE,158,0.0,0.0,41,0.00,,,0.00,VWS V14.01,2013-03-13 18:15:00,
2013-03-13 11:20:00,54.0,30.2,-100.00,SSE,148,4.9,4.9,40,0.00,,,0.00,VWS V14.01,2013-03-13 18:20:00,
2013-03-13 11:25:00,54.5,30.7,-100.00,South,173,2.7,4.0,40,0.00,,,0.00,VWS V14.01,2013-03-13 18:25:00,
2013-03-13 11:30:00,55.0,30.5,-100.00,ESE,117,0.0,0.0,39,0.00,,,0.00,VWS V14.01,2013-03-13 18:30:00,
2013-03-13 11:35:00,55.4,30.9,-100.00,South,173,0.0,3.6,39,0.00,,,0.00,VWS V14.01,2013-03-13 18:35:00,
2013-03-13 11:40:00,55.9,30.7,-100.00,South,178,3.1,3.1,38,0.00,,,0.00,VWS V14.01,2013-03-13 18:40:00,
2013-03-13 11:45:00,56.3,29.7,-100.00,SW,222,3.6,4.0,36,0.00,,,0.00,VWS V14.01,2013-03-13 18:45:00,
2013-03-13 11:50:00,56.5,29.9,-100.00,SSW,196,0.0,0.0,36,0.00,,,0.00,VWS V14.01,2013-03-13 18:50:00,
2013-03-13 11:55:00,56.5,29.9,-100.00,SW,218,2.7,2.7,36,0.00,,,0.00,VWS V14.01,2013-03-13 18:55:00,
2013-03-13 12:00:00,56.5,29.9,-100.00,South,170,2.7,4.5,36,0.00,,,0.00,VWS V14.01,2013-03-13 19:00:00,
2013-03-13 12:05:00,56.7,30.0,-100.00,South,174,2.7,3.6,36,0.00,,,0.00,VWS V14.01,2013-03-13 19:05:00,
2013-03-13 12:10:00,57.0,30.4,-100.00,SW,219,2.7,2.7,36,0.00,,,0.00,VWS V14.01,2013-03-13 19:10:00,
2013-03-13 12:15:00,57.2,30.5,-100.00,SW,231,3.6,4.0,36,0.00,,,0.00,VWS V14.01,2013-03-13 19:15:00,
2013-03-13 12:20:00,57.6,30.8,-100.00,SW,222,3.1,3.1,36,0.00,,,0.00,VWS V14.01,2013-03-13 19:20:00,
2013-03-13 12:25:00,57.7,30.3,-100.00,South,176,2.7,3.1,35,0.00,,,0.00,VWS V14.01,2013-03-13 19:25:00,
2013-03-13 12:30:00,57.7,30.3,-100.00,SSW,202,0.0,0.0,35,0.00,,,0.00,VWS V14.01,2013-03-13 19:30:00,
2013-03-13 12:35:00,57.7,30.3,-100.00,SE,146,3.1,3.1,35,0.00,,,0.00,VWS V14.01,2013-03-13 19:35:00,
2013-03-13 12:40:00,57.7,30.3,-100.00,SSE,159,4.0,5.8,35,0.00,,,0.00,VWS V14.01,2013-03-13 19:40:00,
2013-03-13 12:45:00,58.1,30.6,-100.00,South,185,3.1,5.4,35,0.00,,,0.00,VWS V14.01,2013-03-13 19:45:00,
2013-03-13 12:50:00,58.3,30.8,-100.00,SSE,163,3.6,4.0,35,0.00,,,0.00,VWS V14.01,2013-03-13 19:50:00,
2013-03-13 12:55:00,58.5,30.9,-100.00,SSW,201,5.4,5.4,35,0.00,,,0.00,VWS V14.01,2013-03-13 19:55:00,
2013-03-13 13:00:00,58.6,31.1,-100.00,South,172,3.1,3.1,35,0.00,,,0.00,VWS V14.01,2013-03-13 20:00:00,
2013-03-13 13:05:00,58.8,31.2,-100.00,SW,214,3.6,4.0,35,0.00,,,0.00,VWS V14.01,2013-03-13 20:05:00,
2013-03-13 13:10:00,59.0,30.7,-100.00,South,176,3.1,3.6,34,0.00,,,0.00,VWS V14.01,2013-03-13 20:10:00,
2013-03-13 13:15:00,59.2,30.9,-100.00,SSW,195,0.0,2.2,34,0.00,,,0.00,VWS V14.01,2013-03-13 20:15:00,
2013-03-13 13:20:00,59.4,31.0,-100.00,SSE,159,0.0,0.0,34,0.00,,,0.00,VWS V14.01,2013-03-13 20:20:00,
2013-03-13 13:25:00,59.5,31.2,-100.00,SSE,155,0.0,0.0,34,0.00,,,0.00,VWS V14.01,2013-03-13 20:25:00,
2013-03-13 13:30:00,59.9,31.5,-100.00,SSE,168,2.7,4.0,34,0.00,,,0.00,VWS V14.01,2013-03-13 20:30:00,
2013-03-13 13:35:00,60.1,30.1,-100.00,ENE,65,0.0,3.6,32,0.00,,,0.00,VWS V14.01,2013-03-13 20:35:00,
2013-03-13 13:40:00,60.3,29.5,-100.00,SSE,152,2.7,2.7,31,0.00,,,0.00,VWS V14.01,2013-03-13 20:40:00,
2013-03-13 13:45:00,60.4,29.7,-100.00,SSW,212,2.7,2.7,31,0.00,,,0.00,VWS V14.01,2013-03-13 20:45:00,
2013-03-13 13:50:00,61.0,29.4,-100.00,SSE,159,0.0,0.0,30,0.00,,,0.00,VWS V14.01,2013-03-13 20:50:00,
2013-03-13 13:55:00,61.3,29.7,-100.00,SSE,159,4.9,4.9,30,0.00,,,0.00,VWS V14.01,2013-03-13 20:55:00,
2013-03-13 14:00:00,61.2,28.7,-100.00,South,174,0.0,3.1,29,0.00,,,0.00,VWS V14.01,2013-03-13 21:00:00,
2013-03-13 14:05:00,60.8,29.2,-100.00,SSE,162,3.1,4.9,30,0.00,,,0.00,VWS V14.01,2013-03-13 21:05:00,
2013-03-13 14:10:00,61.0,29.4,-100.00,South,181,2.7,2.7,30,0.00,,,0.00,VWS V14.01,2013-03-13 21:10:00,
2013-03-13 14:15:00,61.2,28.7,-100.00,South,180,3.6,5.4,29,0.00,,,0.00,VWS V14.01,2013-03-13 21:15:00,
2013-03-13 14:20:00,61.3,28.8,-100.00,South,177,0.0,3.1,29,0.00,,,0.00,VWS V14.01,2013-03-13 21:20:00,
2013-03-13 14:25:00,61.3,28.8,-100.00,SSW,199,4.0,4.0,29,0.00,,,0.00,VWS V14.01,2013-03-13 21:25:00,
2013-03-13 14:30:00,61.5,29.8,-100.00,SSE,167,2.7,3.1,30,0.00,,,0.00,VWS V14.01,2013-03-13 21:30:00,
2013-03-13 14:35:00,61.7,29.1,-100.00,SSE,157,0.0,0.0,29,0.00,,,0.00,VWS V14.01,2013-03-13 21:35:00,
2013-03-13 14:40:00,62.1,29.5,-100.00,South,169,3.6,3.6,29,0.00,,,0.00,VWS V14.01,2013-03-13 21:40:00,
2013-03-13 14:45:00,62.4,29.8,-100.00,SSE,156,0.0,0.0,29,0.00,,,0.00,VWS V14.01,2013-03-13 21:45:00,
2013-03-13 14:50:00,63.0,30.2,-100.00,South,173,0.0,3.1,29,0.00,,,0.00,VWS V14.01,2013-03-13 21:50:00,
2013-03-13 14:55:00,63.3,30.5,-100.00,SSE,159,4.0,4.0,29,0.00,,,0.00,VWS V14.01,2013-03-13 21:55:00,
2013-03-13 15:00:00,63.9,31.0,-100.00,South,175,3.1,4.0,29,0.00,,,0.00,VWS V14.01,2013-03-13 22:00:00,
2013-03-13 15:05:00,64.0,32.0,-100.00,South,180,3.6,5.4,30,0.00,,,0.00,VWS V14.01,2013-03-13 22:05:00,
2013-03-13 15:10:00,64.2,31.3,-100.00,SSE,166,2.7,2.7,29,0.00,,,0.00,VWS V14.01,2013-03-13 22:10:00,
2013-03-13 15:15:00,64.4,30.6,-100.00,SSE,152,0.0,0.0,28,0.00,,,0.00,VWS V14.01,2013-03-13 22:15:00,
2013-03-13 15:20:00,64.4,29.7,-100.00,ESE,117,0.0,0.0,27,0.00,,,0.00,VWS V14.01,2013-03-13 22:20:00,
2013-03-13 15:25:00,64.2,29.6,-100.00,South,171,0.0,0.0,27,0.00,,,0.00,VWS V14.01,2013-03-13 22:25:00,
2013-03-13 15:30:00,63.9,29.3,-100.00,SSE,159,0.0,0.0,27,0.00,,,0.00,VWS V14.01,2013-03-13 22:30:00,
2013-03-13 15:35:00,63.9,30.1,-100.00,SSE,153,4.9,4.9,28,0.00,,,0.00,VWS V14.01,2013-03-13 22:35:00,
2013-03-13 15:40:00,63.9,30.1,-100.00,SSE,162,0.0,0.0,28,0.00,,,0.00,VWS V14.01,2013-03-13 22:40:00,
2013-03-13 15:45:00,63.9,29.3,-100.00,East,90,0.0,0.0,27,0.00,,,0.00,VWS V14.01,2013-03-13 22:45:00,
2013-03-13 15:50:00,64.0,29.4,-100.00,East,97,0.0,0.0,27,0.00,,,0.00,VWS V14.01,2013-03-13 22:50:00,
2013-03-13 15:55:00,64.0,30.3,-100.00,SE,141,0.0,3.6,28,0.00,,,0.00,VWS V14.01,2013-03-13 22:55:00,
2013-03-13 16:00:00,63.9,29.3,-100.00,ENE,68,0.0,0.0,27,0.00,,,0.00,VWS V14.01,2013-03-13 23:00:00,
2013-03-13 16:05:00,63.9,29.3,-100.00,East,97,0.0,0.0,27,0.00,,,0.00,VWS V14.01,2013-03-13 23:05:00,
2013-03-13 16:10:00,63.9,30.1,-100.00,NE,48,0.0,0.0,28,0.00,,,0.00,VWS V14.01,2013-03-13 23:10:00,
2013-03-13 16:15:00,63.7,30.0,-100.00,South,177,2.2,4.0,28,0.00,,,0.00,VWS V14.01,2013-03-13 23:15:00,
2013-03-13 16:20:00,63.9,30.1,-100.00,SSE,151,0.0,0.0,28,0.00,,,0.00,VWS V14.01,2013-03-13 23:20:00,
2013-03-13 16:25:00,64.2,30.5,-100.00,ENE,59,0.0,2.2,28,0.00,,,0.00,VWS V14.01,2013-03-13 23:25:00,
2013-03-13 16:30:00,64.6,29.9,-100.00,ENE,68,0.0,0.0,27,0.00,,,0.00,VWS V14.01,2013-03-13 23:30:00,
2013-03-13 16:35:00,65.3,30.5,-100.00,East,79,2.7,3.6,27,0.00,,,0.00,VWS V14.01,2013-03-13 23:35:00,
2013-03-13 16:40:00,65.5,30.6,-100.00,North,357,0.0,0.0,27,0.00,,,0.00,VWS V14.01,2013-03-13 23:40:00,
2013-03-13 16:45:00,65.7,30.8,-100.00,ENE,70,2.2,2.7,27,0.00,,,0.00,VWS V14.01,2013-03-13 23:45:00,
2013-03-13 16:50:00,65.8,31.0,-100.00,East,82,2.7,5.4,27,0.00,,,0.00,VWS V14.01,2013-03-13 23:50:00,
2013-03-13 16:55:00,65.8,31.0,-100.00,South,180,0.0,0.0,27,0.00,,,0.00,VWS V14.01,2013-03-13 23:55:00,
2013-03-13 17:00:00,65.8,31.0,-100.00,ESE,113,0.0,0.0,27,0.00,,,0.00,VWS V14.01,2013-03-14 00:00:00,
2013-03-13 17:05:00,66.0,31.1,-100.00,SSE,167,3.1,4.0,27,0.00,,,0.00,VWS V14.01,2013-03-14 00:05:00,
2013-03-13 17:10:00,66.0,32.0,-100.00,South,169,2.7,2.7,28,0.00,,,0.00,VWS V14.01,2013-03-14 00:10:00,
2013-03-13 17:15:00,66.6,32.5,-100.00,WSW,242,0.0,0.0,28,0.00,,,0.00,VWS V14.01,2013-03-14 00:15:00,
2013-03-13 17:20:00,66.7,32.6,-100.00,West,280,6.3,6.3,28,0.00,,,0.00,VWS V14.01,2013-03-14 00:20:00,
2013-03-13 17:25:00,66.9,32.8,-100.00,WSW,243,2.7,3.6,28,0.00,,,0.00,VWS V14.01,2013-03-14 00:25:00,
2013-03-13 17:30:00,66.9,32.8,-100.00,NW,318,3.1,4.0,28,0.00,,,0.00,VWS V14.01,2013-03-14 00:30:00,
2013-03-13 17:35:00,66.7,32.6,-100.00,WNW,303,2.7,5.4,28,0.00,,,0.00,VWS V14.01,2013-03-14 00:35:00,
2013-03-13 17:40:00,66.4,32.3,-100.00,WNW,291,3.6,5.4,28,0.00,,,0.00,VWS V14.01,2013-03-14 00:40:00,
2013-03-13 17:45:00,65.8,32.7,-100.00,NW,318,4.9,4.9,29,0.00,,,0.00,VWS V14.01,2013-03-14 00:45:00,
2013-03-13 17:50:00,65.3,32.3,-100.00,WSW,254,0.0,3.1,29,0.00,,,0.00,VWS V14.01,2013-03-14 00:50:00,
2013-03-13 17:55:00,64.8,32.6,-100.00,WSW,253,4.0,4.0,30,0.00,,,0.00,VWS V14.01,2013-03-14 00:55:00,
2013-03-13 18:00:00,64.4,32.3,-100.00,NW,313,0.0,0.0,30,0.00,,,0.00,VWS V14.01,2013-03-14 01:00:00,
2013-03-13 18:05:00,64.4,32.3,-100.00,West,276,0.0,3.1,30,0.00,,,0.00,VWS V14.01,2013-03-14 01:05:00,
2013-03-13 18:10:00,64.2,33.0,-100.00,NW,323,0.0,0.0,31,0.00,,,0.00,VWS V14.01,2013-03-14 01:10:00,
2013-03-13 18:15:00,64.2,33.8,-100.00,West,276,0.0,0.0,32,0.00,,,0.00,VWS V14.01,2013-03-14 01:15:00,
2013-03-13 18:20:00,63.5,33.1,-100.00,West,265,0.0,4.0,32,0.00,,,0.00,VWS V14.01,2013-03-14 01:20:00,
2013-03-13 18:25:00,63.1,33.6,-100.00,West,277,0.0,0.0,33,0.00,,,0.00,VWS V14.01,2013-03-14 01:25:00,
2013-03-13 18:30:00,62.4,33.7,-100.00,West,277,0.0,0.0,34,0.00,,,0.00,VWS V14.01,2013-03-14 01:30:00,
2013-03-13 18:35:00,61.7,33.1,-100.00,West,277,0.0,0.0,34,0.00,,,0.00,VWS V14.01,2013-03-14 01:35:00,
2013-03-13 18:40:00,61.0,32.4,-100.00,West,277,0.0,0.0,34,0.00,,,0.00,VWS V14.01,2013-03-14 01:40:00,
2013-03-13 18:45:00,60.1,32.4,-100.00,West,277,0.0,0.0,35,0.00,,,0.00,VWS V14.01,2013-03-14 01:45:00,
2013-03-13 18:50:00,59.4,32.4,-100.00,West,277,0.0,0.0,36,0.00,,,0.00,VWS V14.01,2013-03-14 01:50:00,
2013-03-13 18:55:00,59.0,32.8,-100.00,West,277,0.0,0.0,37,0.00,,,0.00,VWS V14.01,2013-03-14 01:55:00,
2013-03-13 19:00:00,58.6,33.1,-100.00,WNW,286,0.0,0.0,38,0.00,,,0.00,VWS V14.01,2013-03-14 02:00:00,
2013-03-13 19:05:00,58.1,32.7,-100.00,WNW,286,0.0,0.0,38,0.00,,,0.00,VWS V14.01,2013-03-14 02:05:00,
2013-03-13 19:10:00,57.2,32.5,-100.00,WNW,286,0.0,0.0,39,0.00,,,0.00,VWS V14.01,2013-03-14 02:10:00,
2013-03-13 19:15:00,56.5,33.1,-100.00,WNW,300,0.0,0.0,41,0.00,,,0.00,VWS V14.01,2013-03-14 02:15:00,
2013-03-13 19:20:00,56.1,33.4,-100.00,WNW,300,0.0,0.0,42,0.00,,,0.00,VWS V14.01,2013-03-14 02:20:00,
2013-03-13 19:25:00,55.8,33.0,-100.00,WNW,300,0.0,0.0,42,0.00,,,0.00,VWS V14.01,2013-03-14 02:25:00,
2013-03-13 19:30:00,55.6,33.5,-100.00,WNW,300,0.0,0.0,43,0.00,,,0.00,VWS V14.01,2013-03-14 02:30:00,
2013-03-13 19:35:00,55.4,33.9,-100.00,WNW,300,0.0,0.0,44,0.00,,,0.00,VWS V14.01,2013-03-14 02:35:00,
2013-03-13 19:40:00,55.2,33.7,-100.00,WNW,300,0.0,0.0,44,0.00,,,0.00,VWS V14.01,2013-03-14 02:40:00,
2013-03-13 19:45:00,54.9,33.9,-100.00,WNW,300,0.0,0.0,45,0.00,,,0.00,VWS V14.01,2013-03-14 02:45:00,
2013-03-13 19:50:00,54.5,33.6,-100.00,WNW,303,0.0,0.0,45,0.00,,,0.00,VWS V14.01,2013-03-14 02:50:00,
2013-03-13 19:55:00,54.0,33.7,-100.00,WNW,303,0.0,0.0,46,0.00,,,0.00,VWS V14.01,2013-03-14 02:55:00,
2013-03-13 20:00:00,53.8,33.5,-100.00,WNW,303,0.0,0.0,46,0.00,,,0.00,VWS V14.01,2013-03-14 03:00:00,
2013-03-13 20:05:00,53.2,33.5,-100.00,WNW,303,0.0,0.0,47,0.00,,,0.00,VWS V14.01,2013-03-14 03:05:00,
2013-03-13 20:10:00,53.1,33.4,-100.00,WNW,303,0.0,0.0,47,0.00,,,0.00,VWS V14.01,2013-03-14 03:10:00,
2013-03-13 20:15:00,52.9,33.2,-100.00,WNW,303,0.0,0.0,47,0.00,,,0.00,VWS V14.01,2013-03-14 03:15:00,
2013-03-13 20:20:00,52.7,33.0,-100.00,WNW,303,0.0,0.0,47,0.00,,,0.00,VWS V14.01,2013-03-14 03:20:00,
2013-03-13 20:25:00,52.7,33.0,-100.00,WNW,303,0.0,0.0,47,0.00,,,0.00,VWS V14.01,2013-03-14 03:25:00,
2013-03-13 20:30:00,52.7,33.0,-100.00,WNW,303,0.0,0.0,47,0.00,,,0.00,VWS V14.01,2013-03-14 03:30:00,
2013-03-13 20:35:00,52.7,33.0,-100.00,WNW,303,0.0,0.0,47,0.00,,,0.00,VWS V14.01,2013-03-14 03:35:00,
2013-03-13 20:40:00,52.9,33.2,-100.00,WNW,303,0.0,0.0,47,0.00,,,0.00,VWS V14.01,2013-03-14 03:40:00,
2013-03-13 20:45:00,52.9,33.7,-100.00,WNW,303,0.0,0.0,48,0.00,,,0.00,VWS V14.01,2013-03-14 03:45:00,
2013-03-13 20:50:00,52.9,33.2,-100.00,WNW,303,0.0,0.0,47,0.00,,,0.00,VWS V14.01,2013-03-14 03:50:00,
2013-03-13 20:55:00,52.7,33.6,-100.00,WNW,303,0.0,0.0,48,0.00,,,0.00,VWS V14.01,2013-03-14 03:55:00,
2013-03-13 21:00:00,52.3,33.2,-100.00,WNW,303,0.0,0.0,48,0.00,,,0.00,VWS V14.01,2013-03-14 04:00:00,
2013-03-13 21:05:00,52.0,32.9,-100.00,WNW,303,0.0,0.0,48,0.00,,,0.00,VWS V14.01,2013-03-14 04:05:00,
2013-03-13 21:10:00,51.8,33.3,-100.00,SW,224,0.0,0.0,49,0.00,,,0.00,VWS V14.01,2013-03-14 04:10:00,
2013-03-13 21:15:00,51.1,32.6,-100.00,SW,224,0.0,0.0,49,0.00,,,0.00,VWS V14.01,2013-03-14 04:15:00,
2013-03-13 21:20:00,50.4,32.4,-100.00,SW,224,0.0,0.0,50,0.00,,,0.00,VWS V14.01,2013-03-14 04:20:00,
2013-03-13 21:25:00,50.0,33.1,-100.00,SW,224,0.0,0.0,52,0.00,,,0.00,VWS V14.01,2013-03-14 04:25:00,
2013-03-13 21:30:00,49.8,33.4,-100.00,SW,224,0.0,0.0,53,0.00,,,0.00,VWS V14.01,2013-03-14 04:30:00,
2013-03-13 21:35:00,49.8,33.4,-100.00,SW,224,0.0,0.0,53,0.00,,,0.00,VWS V14.01,2013-03-14 04:35:00,
2013-03-13 21:40:00,49.6,33.2,-100.00,SW,224,0.0,0.0,53,0.00,,,0.00,VWS V14.01,2013-03-14 04:40:00,
2013-03-13 21:45:00,49.5,33.5,-100.00,SW,224,0.0,0.0,54,0.00,,,0.00,VWS V14.01,2013-03-14 04:45:00,
2013-03-13 21:50:00,49.3,33.4,-100.00,SW,224,0.0,0.0,54,0.00,,,0.00,VWS V14.01,2013-03-14 04:50:00,
2013-03-13 21:55:00,49.3,33.4,-100.00,SW,224,0.0,0.0,54,0.00,,,0.00,VWS V14.01,2013-03-14 04:55:00,
2013-03-13 22:00:00,49.3,33.4,-100.00,SW,224,0.0,0.0,54,0.00,,,0.00,VWS V14.01,2013-03-14 05:00:00,
2013-03-13 22:05:00,49.3,33.4,-100.00,SW,224,0.0,0.0,54,0.00,,,0.00,VWS V14.01,2013-03-14 05:05:00,
2013-03-13 22:10:00,49.1,33.2,-100.00,SW,224,0.0,0.0,54,0.00,,,0.00,VWS V14.01,2013-03-14 05:10:00,
2013-03-13 22:15:00,48.9,33.0,-100.00,SW,224,0.0,0.0,54,0.00,,,0.00,VWS V14.01,2013-03-14 05:15:00,
2013-03-13 22:20:00,48.7,32.8,-100.00,SW,224,0.0,0.0,54,0.00,,,0.00,VWS V14.01,2013-03-14 05:20:00,
2013-03-13 22:25:00,48.4,33.0,-100.00,SW,224,0.0,0.0,55,0.00,,,0.00,VWS V14.01,2013-03-14 05:25:00,
2013-03-13 22:30:00,48.2,33.7,-100.00,SW,224,0.0,0.0,57,0.00,,,0.00,VWS V14.01,2013-03-14 05:30:00,
2013-03-13 22:35:00,48.0,34.0,-100.00,SW,224,0.0,0.0,58,0.00,,,0.00,VWS V14.01,2013-03-14 05:35:00,
2013-03-13 22:40:00,47.7,33.6,-100.00,SW,224,0.0,0.0,58,0.00,,,0.00,VWS V14.01,2013-03-14 05:40:00,
2013-03-13 22:45:00,47.5,34.3,-100.00,SW,224,0.0,0.0,60,0.00,,,0.00,VWS V14.01,2013-03-14 05:45:00,
2013-03-13 22:50:00,47.5,33.9,-100.00,SW,224,0.0,0.0,59,0.00,,,0.00,VWS V14.01,2013-03-14 05:50:00,
2013-03-13 22:55:00,47.1,33.5,-100.00,SW,224,0.0,0.0,59,0.00,,,0.00,VWS V14.01,2013-03-14 05:55:00,
2013-03-13 23:00:00,46.8,34.0,-100.00,SW,224,0.0,0.0,61,0.00,,,0.00,VWS V14.01,2013-03-14 06:00:00,
2013-03-13 23:05:00,46.2,33.5,-100.00,SW,224,0.0,0.0,61,0.00,,,0.00,VWS V14.01,2013-03-14 06:05:00,
2013-03-13 23:10:00,45.3,32.7,-100.00,SW,224,0.0,0.0,61,0.00,,,0.00,VWS V14.01,2013-03-14 06:10:00,
2013-03-13 23:15:00,44.6,33.6,-100.00,SW,224,0.0,0.0,65,0.00,,,0.00,VWS V14.01,2013-03-14 06:15:00,
2013-03-13 23:20:00,44.1,32.7,-100.00,SW,224,0.0,0.0,64,0.00,,,0.00,VWS V14.01,2013-03-14 06:20:00,
2013-03-13 23:25:00,43.5,32.5,-100.00,SW,224,0.0,0.0,65,0.00,,,0.00,VWS V14.01,2013-03-14 06:25:00,
2013-03-13 23:30:00,43.2,33.0,-100.00,SW,224,0.0,0.0,67,0.00,,,0.00,VWS V14.01,2013-03-14 06:30:00,
2013-03-13 23:35:00,42.8,32.6,-100.00,SW,224,0.0,0.0,67,0.00,,,0.00,VWS V14.01,2013-03-14 06:35:00,
2013-03-13 23:40:00,42.4,32.3,-100.00,SW,224,0.0,0.0,67,0.00,,,0.00,VWS V14.01,2013-03-14 06:40:00,
2013-03-13 23:45:00,42.4,33.0,-100.00,SW,224,0.0,0.0,69,0.00,,,0.00,VWS V14.01,2013-03-14 06:45:00,
2013-03-13 23:50:00,42.4,33.4,-100.00,SW,224,0.0,0.0,70,0.00,,,0.00,VWS V14.01,2013-03-14 06:50:00,
2013-03-13 23:55:00,42.3,33.5,-100.00,SW,224,0.0,0.0,71,0.00,,,0.00,VWS V14.01,2013-03-14 06:55:00,